• In Kazakhstan
  • List of Countries
  • For 7 days
  • Water Temperature
  • Satellite Maps
  • Weather Map
  • News
  • Weather Widgets
  • user-avatar
    Login

    Hourly Weather Grenada

    Today, 25 September, Monday

    Time Temperature Precipitation Wind Pressure Humidity
    00:00 +24°C° 0 mm 1 mps 754 mmHg 82%
    01:00 +23°C° 0 mm 1 mps 754 mmHg 83%
    02:00 +23°C° 0 mm 1 mps 753 mmHg 84%
    03:00 +23°C° 0 mm 1 mps 753 mmHg 85%
    04:00 +23°C° 0 mm 1 mps 754 mmHg 86%
    05:00 +22°C° 0 mm 1 mps 754 mmHg 87%
    06:00 +22°C° 0 mm 1 mps 754 mmHg 88%
    07:00 +24°C° 0 mm 1 mps 754 mmHg 81%
    08:00 +26°C° 0 mm 2 mps 754 mmHg 73%
    09:00 +29°C° 0 mm 2 mps 755 mmHg 66%
    10:00 +30°C° 0 mm 2 mps 754 mmHg 60%
    11:00 +31°C° 0 mm 2 mps 754 mmHg 54%
    12:00 +32°C° 0 mm 2 mps 753 mmHg 49%
    13:00 +32°C° 0 mm 2 mps 753 mmHg 49%
    14:00 +32°C° 0 mm 2 mps 752 mmHg 50%
    15:00 +32°C° 0 mm 2 mps 752 mmHg 51%
    16:00 +31°C° 0 mm 2 mps 752 mmHg 56%
    17:00 +29°C° 0 mm 2 mps 752 mmHg 62%
    18:00 +28°C° 0 mm 1 mps 752 mmHg 68%
    19:00 +27°C° 0 mm 1 mps 752 mmHg 70%
    20:00 +26°C° 0 mm 1 mps 752 mmHg 72%
    21:00 +25°C° 0 mm 1 mps 753 mmHg 74%
    22:00 +25°C° 0 mm 1 mps 753 mmHg 75%
    23:00 +25°C° 0 mm 1 mps 752 mmHg 77%

    Tomorrow, 26 September, Tuesday

    Time Temperature Precipitation Wind Pressure Humidity
    00:00 +24°C° 0 mm 1 mps 752 mmHg 79%
    01:00 +24°C° 0 mm 1 mps 752 mmHg 80%
    02:00 +24°C° 0 mm 1 mps 752 mmHg 81%
    03:00 +23°C° 0 mm 1 mps 752 mmHg 81%
    04:00 +23°C° 0 mm 1 mps 752 mmHg 82%
    05:00 +23°C° 0 mm 1 mps 753 mmHg 83%
    06:00 +23°C° 0 mm 1 mps 753 mmHg 83%
    07:00 +25°C° 0 mm 1 mps 753 mmHg 76%
    08:00 +27°C° 0 mm 1 mps 754 mmHg 69%
    09:00 +29°C° 0 mm 1 mps 754 mmHg 62%
    10:00 +31°C° 0 mm 1 mps 754 mmHg 56%
    11:00 +32°C° 0 mm 1 mps 754 mmHg 51%
    12:00 +34°C° 0 mm 1 mps 753 mmHg 45%
    13:00 +34°C° 0 mm 1 mps 753 mmHg 45%
    14:00 +34°C° 0 mm 1 mps 752 mmHg 45%
    15:00 +33°C° 0 mm 1 mps 752 mmHg 45%
    16:00 +32°C° 0 mm 1 mps 752 mmHg 50%
    17:00 +30°C° 0 mm 1 mps 752 mmHg 55%
    18:00 +29°C° 0 mm 1 mps 752 mmHg 61%
    19:00 +28°C° 0 mm 1 mps 752 mmHg 63%
    20:00 +27°C° 0 mm 1 mps 753 mmHg 65%
    21:00 +26°C° 0 mm 1 mps 753 mmHg 67%
    22:00 +26°C° 0 mm 1 mps 753 mmHg 69%
    23:00 +25°C° 0 mm 1 mps 753 mmHg 70%

    Day after tomorrow, 27 September, Wednesday

    Time Temperature Precipitation Wind Pressure Humidity
    00:00 +25°C° 0 mm 1 mps 753 mmHg 72%
    01:00 +24°C° 0 mm 1 mps 753 mmHg 74%
    02:00 +24°C° 0 mm 1 mps 753 mmHg 76%
    03:00 +24°C° 0 mm 1 mps 753 mmHg 78%
    04:00 +23°C° 0 mm 1 mps 753 mmHg 79%
    05:00 +23°C° 0 mm 1 mps 753 mmHg 80%
    06:00 +23°C° 0 mm 1 mps 754 mmHg 81%
    07:00 +25°C° 0 mm 1 mps 754 mmHg 74%
    08:00 +28°C° 0 mm 1 mps 754 mmHg 67%
    09:00 +30°C° 0 mm 1 mps 755 mmHg 61%
    10:00 +31°C° 0 mm 2 mps 755 mmHg 56%
    11:00 +34°C° 0 mm 2 mps 754 mmHg 51%
    12:00 +35°C° 0 mm 2 mps 754 mmHg 46%
    13:00 +35°C° 0 mm 2 mps 753 mmHg 46%
    14:00 +35°C° 0 mm 2 mps 753 mmHg 47%
    15:00 +35°C° 0 mm 2 mps 752 mmHg 48%
    16:00 +32°C° 0 mm 2 mps 752 mmHg 54%
    17:00 +30°C° 0 mm 2 mps 753 mmHg 60%
    18:00 +28°C° 0 mm 2 mps 753 mmHg 66%
    19:00 +28°C° 0 mm 2 mps 753 mmHg 68%
    20:00 +27°C° 0 mm 2 mps 754 mmHg 70%
    21:00 +26°C° 0 mm 2 mps 754 mmHg 73%
    22:00 +25°C° 0 mm 2 mps 754 mmHg 75%
    23:00 +25°C° 0 mm 2 mps 754 mmHg 77%

    28 September, Thursday

    Time Temperature Precipitation Wind Pressure Humidity
    00:00 +24°C° 0 mm 2 mps 754 mmHg 80%
    01:00 +24°C° 0 mm 2 mps 754 mmHg 82%
    02:00 +24°C° 0 mm 2 mps 754 mmHg 84%
    03:00 +24°C° 0 mm 2 mps 754 mmHg 86%
    04:00 +23°C° 0 mm 2 mps 754 mmHg 87%
    05:00 +23°C° 0 mm 2 mps 754 mmHg 89%
    06:00 +23°C° 0 mm 2 mps 755 mmHg 90%
    07:00 +24°C° 0 mm 3 mps 755 mmHg 84%
    08:00 +26°C° 0 mm 3 mps 756 mmHg 77%
    09:00 +28°C° 0 mm 3 mps 756 mmHg 71%
    10:00 +29°C° 0.1 mm 3 mps 756 mmHg 65%
    11:00 +31°C° 0.1 mm 3 mps 756 mmHg 60%
    12:00 +33°C° 0.1 mm 4 mps 755 mmHg 55%
    13:00 +33°C° 0.5 mm 4 mps 755 mmHg 57%
    14:00 +32°C° 0.5 mm 4 mps 754 mmHg 60%
    15:00 +32°C° 0.5 mm 4 mps 754 mmHg 62%
    16:00 +29°C° 0.1 mm 4 mps 754 mmHg 65%
    17:00 +28°C° 0.1 mm 3 mps 754 mmHg 68%
    18:00 +26°C° 0.1 mm 3 mps 755 mmHg 72%
    19:00 +25°C° 0 mm 3 mps 755 mmHg 71%
    20:00 +24°C° 0 mm 3 mps 756 mmHg 70%
    21:00 +22°C° 0 mm 3 mps 756 mmHg 70%
    22:00 +21°C° 0 mm 3 mps 756 mmHg 69%
    23:00 +21°C° 0 mm 3 mps 756 mmHg 69%

    29 September, Friday

    Time Temperature Precipitation Wind Pressure Humidity
    00:00 +20°C° 0 mm 3 mps 756 mmHg 68%
    01:00 +20°C° 0 mm 3 mps 756 mmHg 69%
    02:00 +19°C° 0 mm 3 mps 756 mmHg 70%
    03:00 +18°C° 0 mm 3 mps 756 mmHg 71%
    04:00 +18°C° 0 mm 3 mps 756 mmHg 71%
    05:00 +17°C° 0 mm 3 mps 756 mmHg 72%
    06:00 +17°C° 0 mm 3 mps 757 mmHg 73%
    07:00 +19°C° 0 mm 3 mps 757 mmHg 67%
    08:00 +20°C° 0 mm 4 mps 757 mmHg 61%
    09:00 +22°C° 0 mm 4 mps 757 mmHg 54%
    10:00 +23°C° 0 mm 4 mps 757 mmHg 50%
    11:00 +26°C° 0 mm 4 mps 757 mmHg 46%
    12:00 +27°C° 0 mm 4 mps 757 mmHg 41%
    13:00 +27°C° 0 mm 5 mps 756 mmHg 41%
    14:00 +28°C° 0 mm 5 mps 756 mmHg 42%
    15:00 +28°C° 0 mm 5 mps 755 mmHg 42%
    16:00 +26°C° 0 mm 4 mps 756 mmHg 49%
    17:00 +24°C° 0 mm 3 mps 756 mmHg 56%
    18:00 +21°C° 0 mm 3 mps 756 mmHg 62%
    19:00 +20°C° 0 mm 3 mps 756 mmHg 65%
    20:00 +20°C° 0 mm 3 mps 757 mmHg 68%
    21:00 +19°C° 0 mm 3 mps 757 mmHg 70%
    22:00 +19°C° 0 mm 3 mps 757 mmHg 71%
    23:00 +18°C° 0 mm 3 mps 757 mmHg 72%

    30 September, Saturday

    Time Temperature Precipitation Wind Pressure Humidity
    00:00 +18°C° 0 mm 3 mps 757 mmHg 73%
    01:00 +17°C° 0 mm 3 mps 757 mmHg 73%
    02:00 +17°C° 0 mm 3 mps 757 mmHg 73%
    03:00 +17°C° 0 mm 3 mps 757 mmHg 73%
    04:00 +16°C° 0 mm 3 mps 757 mmHg 74%
    05:00 +16°C° 0 mm 3 mps 757 mmHg 75%
    06:00 +16°C° 0 mm 3 mps 757 mmHg 76%
    07:00 +18°C° 0 mm 4 mps 758 mmHg 70%
    08:00 +20°C° 0 mm 4 mps 758 mmHg 64%
    09:00 +22°C° 0 mm 4 mps 758 mmHg 58%
    10:00 +23°C° 0 mm 4 mps 758 mmHg 54%
    11:00 +26°C° 0 mm 4 mps 757 mmHg 50%
    12:00 +28°C° 0 mm 4 mps 757 mmHg 46%
    13:00 +28°C° 0 mm 4 mps 757 mmHg 47%
    14:00 +28°C° 0 mm 4 mps 756 mmHg 49%
    15:00 +29°C° 0 mm 3 mps 755 mmHg 50%
    16:00 +27°C° 0 mm 3 mps 756 mmHg 57%
    17:00 +25°C° 0 mm 3 mps 756 mmHg 65%
    18:00 +24°C° 0 mm 2 mps 756 mmHg 72%
    19:00 +22°C° 0 mm 3 mps 756 mmHg 73%
    20:00 +22°C° 0 mm 3 mps 756 mmHg 73%
    21:00 +21°C° 0 mm 3 mps 756 mmHg 73%
    22:00 +21°C° 0 mm 3 mps 756 mmHg 74%
    23:00 +21°C° 0 mm 3 mps 756 mmHg 74%
    Show more